User: anonymous   Login
Location: Clermont
(50.2608°N, 4.3172°E)
Time: 19:16:29
(UTC+00:00)
Language:

Cosmos 2061 Rocket - Orbit

View from above orbital plane
View from above orbital plane
View from above satellite
View from above satellite

Ground track
Ground track

The orbit data is extracted from the following two-line orbital elements,

1 20528U 90023B   20295.28846953 +.00000092 +00000-0 +83704-4 0  9991
2 20528 082.9362 240.4497 0030662 227.7101 297.9542 13.72880585532449
Epoch (UTC): 21 October 2020 06:55:23
Eccentricity: 0.0030662
inclination: 82.9362°
perigee height: 966 km
apogee height: 1012 km
right ascension of ascending node: 240.4497°
argument of perigee: 227.7101°
revolutions per day: 13.72880585
mean anomaly at epoch: 297.9542°
orbit number at epoch: 53244

The dashed part of the orbit path shows where the satellite is in the earth's shadow,  

DLR